Location: Selby
(38.0566°N, 122.2439°W)
Time: 07:05:25
(UTC+00:00)

Okean 2 Rocket - Pass Details

Date: 16 August 2024
Orbit: 613 x 638 km, 82.5° (Epoch: 19 September)

Event Time Altitude Azimuth Distance (km) Brightness Sun altitude
Rises 11:52:18 0° 138° (SE) 2,923 6.6 -17.3°
Reaches altitude 10° 11:55:47 10° 109° (ESE) 2,018 6.2 -16.8°
Maximum altitude 11:57:39 12° 85° (E) 1,856 6.4 -16.5°
Drops below altitude 10° 11:59:31 10° 60° (ENE) 2,019 7.1 -16.1°
Sets 12:02:59 0° 31° (NNE) 2,927 7.7 -15.6°
